Weather History for Chetumal, Mexico

Change the Weather History Date:

Tuesday, December 24, 2013

  Actual Average Record
Temperature  
Mean Temperature 80 °F -  
Max Temperature 87 °F 80 °F 87 °F (1997)
Min Temperature 72 °F 67 °F 56 °F (2012)
Cooling Degree Days 15    
Growing Degree Days 30 (Base 50)    
Moisture  
Dew Point 71 °F    
Average Humidity 76    
Maximum Humidity 94    
Minimum Humidity 55    
Precipitation  
Precipitation 0.71 in - - ()
Sea Level Pressure  
Sea Level Pressure 30.08 in    
Wind  
Wind Speed 6 mph ()    
Max Wind Speed 14 mph    
Max Gust Speed -    
Visibility 5.9 miles    
Events Rain    
Averages and records for this station are not official NWS values.
T = Trace of Precipitation, MM = Missing Value Source: Averaged Metar Reports

Daily Weather History Graph

Daily Weather History Graph

Search for Another Location

Airport:

Trip Planner

Search our weather history database for the weather conditions in past years. The results will help you decide how hot, cold, wet, or windy it might be!

Date:

Astronomy

Dec. 24, 2013 Rise Set
Actual Time 6:22 AM CST 5:23 PM CST
Civil Twilight 5:58 AM CST 5:47 PM CST
Nautical Twilight 5:31 AM CST 6:14 PM CST
Astronomical Twilight 5:04 AM CST 6:41 PM CST
Moon 11:35 PM CST (12/24) 11:08 AM CST (12/24)
Length of Visible Light 11h 48m
Length of Day
11h 01m
Waning Gibbous, 58% of the Moon is Illuminated
Dec 24
Waning Gibbous
Dec 25
Last Quarter
Jan 1
New
Jan 7
First Quarter
Jan 15
Full

Hourly Weather History & Observations

Time (CST) Temp. Heat Index Dew Point Humidity Pressure Visibility Wind Dir Wind Speed Gust Speed Precip Events Conditions
6:40 AM 73.4 °F - 66.2 °F 78% 30.10 in 7.0 mi East 9.2 mph - N/A   Scattered Clouds
7:18 AM 73.4 °F - 66.2 °F 78% 30.13 in 4.0 mi North 6.9 mph - N/A Rain Light Rain
7:42 AM 73.4 °F - 66.2 °F 78% 30.12 in 5.0 mi North 11.5 mph - N/A   Mostly Cloudy
8:00 AM 73.4 °F - 66.2 °F 78% 30.14 in 3.0 mi North 9.2 mph - N/A Rain Rain
8:45 AM 73.4 °F - 66.2 °F 78% 30.15 in 7.0 mi North 6.9 mph - N/A   Mostly Cloudy
8:50 AM 74 °F - 72 °F 94% 30.16 in 6 mi NNW 4.5 mph - - Rain Light Rain
9:41 AM 75.2 °F - 68.0 °F 78% 30.14 in 7.0 mi NNW 6.9 mph - N/A   Mostly Cloudy
10:42 AM 75.2 °F - 68.0 °F 78% 30.12 in 7.0 mi North 6.9 mph - N/A   Mostly Cloudy
11:07 AM 75.2 °F - 68.0 °F 78% 30.12 in 5.0 mi North 6.9 mph - N/A   Overcast
11:40 AM 80.6 °F 84.6 °F 71.6 °F 74% 30.09 in 5.0 mi North 6.9 mph - N/A   Mostly Cloudy
11:50 AM 83 °F - 74 °F 66% 30.10 in 6 mi North 4.5 mph - - Rain Light Rain
12:00 PM 83 °F - 74 °F 66% 30.10 in 6 mi North 4.5 mph - - Rain Light Rain
12:40 PM 80.6 °F 84.6 °F 71.6 °F 74% 30.05 in 5.0 mi North 6.9 mph - N/A   Mostly Cloudy
1:43 PM 82.4 °F 87.2 °F 71.6 °F 70% 30.02 in 5.0 mi NE 13.8 mph - N/A   Mostly Cloudy
2:40 PM 86 °F - 72 °F 55% 30.01 in 6 mi East 6.7 mph - -   Partly Cloudy
2:43 PM 84.2 °F 90.9 °F 73.4 °F 70% 30.01 in 7.0 mi NE 11.5 mph - N/A   Mostly Cloudy
3:43 PM 84.2 °F 90.9 °F 73.4 °F 70% 29.98 in 7.0 mi Calm Calm - N/A   Mostly Cloudy
4:43 PM 82.4 °F 88.2 °F 73.4 °F 74% 30.00 in 7.0 mi Calm Calm - N/A   Mostly Cloudy
5:40 PM 80 °F - 72 °F 69% 30.03 in 5 mi ENE 4.5 mph - -   Partly Cloudy
5:43 PM 80.6 °F 85.4 °F 73.4 °F 79% 30.02 in 7.0 mi Calm Calm - N/A   Mostly Cloudy
6:43 PM 80.6 °F 85.4 °F 73.4 °F 79% 30.04 in 7.0 mi Calm Calm - N/A   Mostly Cloudy
7:43 PM 80.6 °F 85.4 °F 73.4 °F 79% 30.05 in 7.0 mi Calm Calm - N/A   Mostly Cloudy
8:50 PM 74 °F - 72 °F 93% 30.08 in 5 mi NNW 2.2 mph - -   Scattered Clouds
11:50 PM 72 °F - 70 °F 93% 30.08 in 5 mi North 4.5 mph - -   Partly Cloudy